TimeEDT,TemperatureF,Dew PointF,Humidity,Sea Level PressureIn,VisibilityMPH,Wind Direction,Wind SpeedMPH,Gust SpeedMPH,PrecipitationIn,Events,Conditions,WindDirDegrees,DateUTC
12:53 AM,79.0,66.9,66,30.04,10.0,East,12.7,-,N/A,,Clear,90,2013-10-14 04:53:00
1:53 AM,79.0,66.0,64,30.03,10.0,East,12.7,-,N/A,,Clear,90,2013-10-14 05:53:00
2:53 AM,78.1,66.9,68,30.02,10.0,East,10.4,-,N/A,,Clear,80,2013-10-14 06:53:00
3:53 AM,75.9,66.9,74,30.01,10.0,NNE,5.8,-,N/A,,Clear,20,2013-10-14 07:53:00
4:53 AM,75.0,66.9,76,30.01,10.0,NNE,5.8,-,N/A,,Clear,20,2013-10-14 08:53:00
5:53 AM,75.0,69.1,82,30.01,10.0,NNE,6.9,-,N/A,,Clear,20,2013-10-14 09:53:00
6:53 AM,75.0,70.0,84,30.01,10.0,NE,9.2,-,N/A,,Clear,40,2013-10-14 10:53:00
7:53 AM,75.0,70.0,84,30.02,10.0,NE,9.2,-,N/A,,Clear,40,2013-10-14 11:53:00
8:53 AM,75.9,70.0,82,30.03,10.0,NE,12.7,-,N/A,,Clear,40,2013-10-14 12:53:00
9:53 AM,78.1,69.1,74,30.05,10.0,ENE,11.5,-,N/A,,Clear,60,2013-10-14 13:53:00
10:53 AM,79.0,69.1,72,30.05,10.0,ENE,9.2,-,N/A,,Clear,60,2013-10-14 14:53:00
11:53 AM,81.0,69.1,67,30.04,10.0,ENE,8.1,-,N/A,,Clear,60,2013-10-14 15:53:00
12:53 PM,82.9,66.0,56,30.01,10.0,NE,6.9,-,N/A,,Clear,50,2013-10-14 16:53:00
1:53 PM,84.0,66.0,55,29.99,10.0,NE,10.4,-,N/A,,Clear,50,2013-10-14 17:53:00
2:53 PM,84.9,64.9,51,29.96,10.0,NNE,10.4,-,N/A,,Clear,20,2013-10-14 18:53:00
3:53 PM,86.0,64.0,48,29.94,10.0,ENE,10.4,-,N/A,,Clear,60,2013-10-14 19:53:00
4:53 PM,86.0,64.9,49,29.93,10.0,NNE,9.2,-,N/A,,Clear,30,2013-10-14 20:53:00
5:53 PM,84.0,66.0,55,29.94,10.0,NNE,11.5,-,N/A,,Partly Cloudy,20,2013-10-14 21:53:00
6:53 PM,82.0,68.0,62,29.95,10.0,North,10.4,-,N/A,,Clear,360,2013-10-14 22:53:00
7:53 PM,81.0,69.1,67,29.96,10.0,North,10.4,-,N/A,,Clear,360,2013-10-14 23:53:00
8:53 PM,80.1,68.0,67,29.98,10.0,North,9.2,-,N/A,,Clear,10,2013-10-15 00:53:00
9:53 PM,79.0,69.1,72,30.00,10.0,NE,16.1,-,N/A,,Clear,50,2013-10-15 01:53:00
10:53 PM,78.1,68.0,71,30.01,10.0,NE,13.8,-,N/A,,Clear,50,2013-10-15 02:53:00
11:53 PM,77.0,70.0,79,30.01,10.0,ENE,18.4,-,N/A,,Clear,70,2013-10-15 03:53:00